Regional Weather Roundup
Issued by NWS

Home | Current Version | Previous Version | Graphics & Text | Print | Product List | Glossary On
Versions: 1 2 3 4 5 6 7 8 9 10 11 12 13 14 15 16 17 18 19 20 21 22 23 24 25 26 27 28 29 30 31 32 33 34 35 36 37 38 39 40 41 42 43 44 45 46 47 48 49 50
000
ASUS44 KMEG 291900
RWRTN
TENNESSEE HOURLY STATE WEATHER ROUNDUP
NATIONAL WEATHER SERVICE MEMPHIS TN
200 PM CDT WED JUL 29 2015

TNZ002-004-019-021-049-052-054-088>092-292000-
WEST TENNESSEE

CITY           SKY/WX    TMP DP  RH WIND       PRES   REMARKS
MEMPHIS INTL   PTSUNNY   98  74  45 VRB6      30.01F HX 109
NWS MEMPHIS      N/A     96 N/A N/A MISG        N/A
JACKSON        MOSUNNY   96  74  48 NW6       30.00F HX 107
DYERSBURG        N/A    N/A N/A N/A MISG        N/A
PARIS          SUNNY     91  77  62 W5        30.01F HX 105
LEXINGTON      SUNNY     93  75  55 CALM      30.00F HX 104
$$

TNZ008-025-027-028-033-062-065-066-292000-
NORTH MIDDLE TENNESSEE

CITY           SKY/WX    TMP DP  RH WIND       PRES   REMARKS
NASHVILLE      MOSUNNY   92  76  59 CALM      30.02F HX 104
CLARKSVILLE    PTSUNNY   87  78  74 VRB5      30.01F HX 100
CROSSVILLE     PTSUNNY   85  72  65 NW9       30.08F HX  91
$$

TNZ061-075-076-078-094-096-097-292000-
SOUTH MIDDLE TENNESSEE

CITY           SKY/WX    TMP DP  RH WIND       PRES   REMARKS
FAYETTEVILLE     N/A     88  70  55 NW3       30.04F HX  92
TULLAHOMA      SUNNY     88  73  62 N7        30.06S HX  96
WINCHESTER     PTSUNNY   88  75  66 NW6       30.03F HX  97
MCMINNVILLE    MOSUNNY   88  79  74 N8        30.04F HX 102
COLUMBIA       SUNNY     82  81  94 CALM      30.02F HX  95
SHELBYVILLE    PTSUNNY   90  79  70 VRB5      30.04F HX 105
$$

TNZ017-018-042-046-047-292000-
NORTHEAST TENNESSEE

CITY           SKY/WX    TMP DP  RH WIND       PRES   REMARKS
TRI CITIES     MOSUNNY   89  69  51 VRB5      30.04F HX  93
ELIZABETHTON   CLEAR     86  70  58 N6        30.04F HX  90
$$

TNZ012-013-036-069-073-074-292000-
CENTRAL EAST TENNESSEE

CITY           SKY/WX    TMP DP  RH WIND       PRES   REMARKS
KNOXVILLE      PTSUNNY   89  71  55 NW6       30.00F HX  95
OAK RIDGE      PTSUNNY   90  73  57 VRB3      30.02F HX  98
GATLINBURG       N/A     90  70  51 W3        30.00F HX  95
$$

TNZ083-085-099-292000-
SOUTHEAST TENNESSEE

CITY           SKY/WX    TMP DP  RH WIND       PRES   REMARKS
CHATTANOOGA    MOSUNNY   93  73  52 N9        29.99F HX 102
$$

SKY/WX REPORTED AS FAIR MEANS FEW OR NO CLOUDS BELOW
12 THOUSAND FEET.




USA.gov is the U.S. government's official web portal to all federal, state and local government web resources and services.